| time (UTC) | temp C | wind direction | speed KPH | gust KPH | rain 1hr cm | rain 24hr cm | rain mn cm | humidity % | barometer mb |
| 20260903005608 | 29 | 233 | 6.4 | 14.5 | 0.00 | 0.00 | 0.00 | 20 | 1013.4 |
| 20260903004104 | 30 | 238 | 4.8 | 14.5 | 0.00 | 0.00 | 0.00 | 19 | 1013.4 |
| 20260903003603 | 29 | 246 | 6.4 | 14.5 | 0.00 | 0.00 | 0.00 | 18 | 1013.4 |
| 20260903003104 | 29 | 237 | 6.4 | 12.9 | 0.00 | 0.00 | 0.00 | 17 | 1013.4 |
| 20260903002106 | 30 | 266 | 8.0 | 14.5 | 0.00 | 0.00 | 0.00 | 17 | 1013.4 |
| 20260903001604 | 30 | 258 | 4.8 | 12.9 | 0.00 | 0.00 | 0.00 | 17 | 1013.4 |
| 20260903000604 | 30 | 236 | 8.0 | 14.5 | 0.00 | 0.00 | 0.00 | 18 | 1013.4 |
| 20260903000107 | 30 | 263 | 6.4 | 19.3 | 0.00 | 0.00 | 0.00 | 17 | 1013.4 |
| 20260902235603 | 30 | 254 | 6.4 | 19.3 | 0.00 | 0.00 | 0.00 | 17 | 1013.4 |
| 20260902235104 | 30 | 229 | 6.4 | 14.5 | 0.00 | 0.00 | 0.00 | 17 | 1013.4 |
| 20260902234604 | 30 | 258 | 6.4 | 16.1 | 0.00 | 0.00 | 0.00 | 17 | 1013.4 |
| 20260902234104 | 30 | 189 | 6.4 | 16.1 | 0.00 | 0.00 | 0.00 | 15 | 1013.5 |
| 20260902233604 | 30 | 196 | 4.8 | 14.5 | 0.00 | 0.00 | 0.00 | 16 | 1013.5 |
| 20260902232604 | 30 | 279 | 8.0 | 14.5 | 0.00 | 0.00 | 0.00 | 18 | 1013.6 |
| 20260902231104 | 30 | 269 | 9.7 | 16.1 | 0.00 | 0.00 | 0.00 | 18 | 1013.9 |
| 20260902230606 | 30 | 267 | 9.7 | 16.1 | 0.00 | 0.00 | 0.00 | 18 | 1013.9 |
| 20260902230104 | 30 | 259 | 8.0 | 14.5 | 0.00 | 0.00 | 0.00 | 17 | 1013.9 |
| 20260902224104 | 30 | 262 | 9.7 | 14.5 | 0.00 | 0.00 | 0.00 | 18 | 1014.0 |
| 20260902222654 | 30 | 240 | 9.7 | 16.1 | 0.00 | 0.00 | 0.00 | 18 | 1014.1 |
| 20260902222104 | 29 | 246 | 8.0 | 14.5 | 0.00 | 0.00 | 0.00 | 18 | 1014.2 |
| 20260902221604 | 29 | 234 | 8.0 | 14.5 | 0.00 | 0.00 | 0.00 | 19 | 1014.3 |
| 20260902220604 | 29 | 266 | 6.4 | 14.5 | 0.00 | 0.00 | 0.00 | 19 | 1014.4 |
| 20260902214603 | 29 | 294 | 8.0 | 12.9 | 0.00 | 0.00 | 0.00 | 18 | 1014.4 |
| 20260902214103 | 29 | 280 | 8.0 | 12.9 | 0.00 | 0.00 | 0.00 | 19 | 1014.5 |
| 20260902213604 | 29 | 290 | 9.7 | 12.9 | 0.00 | 0.00 | 0.00 | 18 | 1014.5 |
| 20260902212604 | 28 | 265 | 9.7 | 14.5 | 0.00 | 0.00 | 0.00 | 19 | 1014.6 |
| 20260902212104 | 29 | 264 | 6.4 | 16.1 | 0.00 | 0.00 | 0.00 | 19 | 1014.7 |
| 20260902211103 | 29 | 259 | 4.8 | 16.1 | 0.00 | 0.00 | 0.00 | 19 | 1014.8 |
| 20260902210606 | 28 | 254 | 6.4 | 14.5 | 0.00 | 0.00 | 0.00 | 19 | 1014.9 |
| 20260902210105 | 28 | 256 | 8.0 | 19.3 | 0.00 | 0.00 | 0.00 | 19 | 1014.8 |
| 20260902205613 | 28 | 286 | 8.0 | 19.3 | 0.00 | 0.00 | 0.00 | 20 | 1014.9 |
| 20260902205104 | 29 | 273 | 6.4 | 16.1 | 0.00 | 0.00 | 0.00 | 18 | 1014.9 |
| 20260902204603 | 29 | 276 | 8.0 | 19.3 | 0.00 | 0.00 | 0.00 | 18 | 1014.9 |
| 20260902204104 | 28 | 282 | 4.8 | 19.3 | 0.00 | 0.00 | 0.00 | 17 | 1015.0 |
| 20260902203604 | 28 | 249 | 9.7 | 19.3 | 0.00 | 0.00 | 0.00 | 16 | 1015.0 |
| 20260902203104 | 29 | 267 | 8.0 | 12.9 | 0.00 | 0.00 | 0.00 | 17 | 1014.9 |
| 20260902201620 | 28 | 267 | 8.0 | 14.5 | 0.00 | 0.00 | 0.00 | 18 | 1015.0 |
| 20260902201104 | 28 | 266 | 8.0 | 19.3 | 0.00 | 0.00 | 0.00 | 20 | 1014.9 |
| 20260902200604 | 28 | 260 | 6.4 | 19.3 | 0.00 | 0.00 | 0.00 | 20 | 1014.9 |
| 20260902195607 | 28 | 256 | 8.0 | 11.3 | 0.00 | 0.00 | 0.00 | 21 | 1015.0 |
| 20260902194604 | 28 | 276 | 4.8 | 12.9 | 0.00 | 0.00 | 0.00 | 19 | 1015.2 |
| 20260902194104 | 28 | 293 | 4.8 | 12.9 | 0.00 | 0.00 | 0.00 | 19 | 1015.2 |
| 20260902193104 | 28 | 273 | 4.8 | 12.9 | 0.00 | 0.00 | 0.00 | 20 | 1015.2 |
| 20260902192604 | 28 | 279 | 6.4 | 12.9 | 0.00 | 0.00 | 0.00 | 19 | 1015.3 |
| 20260902192104 | 28 | 300 | 6.4 | 11.3 | 0.00 | 0.00 | 0.00 | 18 | 1015.3 |
| 20260902191104 | 28 | 303 | 6.4 | 11.3 | 0.00 | 0.00 | 0.00 | 19 | 1015.4 |
| 20260902190603 | 28 | 278 | 4.8 | 8.0 | 0.00 | 0.00 | 0.00 | 19 | 1015.4 |
| 20260902190104 | 28 | 304 | 3.2 | 8.0 | 0.00 | 0.00 | 0.00 | 21 | 1015.4 |
| 20260902185104 | 27 | 312 | 1.6 | 11.3 | 0.00 | 0.00 | 0.00 | 22 | 1015.5 |
| 20260902184604 | 27 | 315 | 4.8 | 11.3 | 0.00 | 0.00 | 0.00 | 23 | 1015.5 |
| 20260902184104 | 27 | 336 | 6.4 | 11.3 | 0.00 | 0.00 | 0.00 | 22 | 1015.5 |
| 20260902183603 | 27 | 280 | 4.8 | 9.7 | 0.00 | 0.00 | 0.00 | 24 | 1015.5 |
| 20260902183103 | 26 | 278 | 1.6 | 8.0 | 0.00 | 0.00 | 0.00 | 23 | 1015.5 |
| 20260902182604 | 26 | 277 | 3.2 | 9.7 | 0.00 | 0.00 | 0.00 | 23 | 1015.6 |
| 20260902182105 | 26 | 314 | 4.8 | 9.7 | 0.00 | 0.00 | 0.00 | 23 | 1015.7 |
| 20260902181104 | 26 | 262 | 3.2 | 8.0 | 0.00 | 0.00 | 0.00 | 23 | 1016.0 |
| 20260902180604 | 25 | 293 | 4.8 | 8.0 | 0.00 | 0.00 | 0.00 | 23 | 1016.0 |
| 20260902180105 | 25 | 268 | 1.6 | 8.0 | 0.00 | 0.00 | 0.00 | 22 | 1016.0 |
| 20260902175104 | 25 | 276 | 1.6 | 8.0 | 0.00 | 0.00 | 0.00 | 23 | 1016.0 |
| 20260902174604 | 25 | 289 | 3.2 | 8.0 | 0.00 | 0.00 | 0.00 | 23 | 1016.1 |
| 20260902174104 | 24 | 280 | 1.6 | 4.8 | 0.00 | 0.00 | 0.00 | 23 | 1016.1 |
| 20260902173603 | 24 | 253 | 1.6 | 4.8 | 0.00 | 0.00 | 0.00 | 22 | 1016.1 |
| 20260902172604 | 23 | 294 | 1.6 | 4.8 | 0.00 | 0.00 | 0.00 | 22 | 1016.1 |
| 20260902171604 | 23 | 286 | 1.6 | 4.8 | 0.00 | 0.00 | 0.00 | 21 | 1016.1 |
| 20260902170606 | 23 | 328 | 3.2 | 4.8 | 0.00 | 0.00 | 0.00 | 20 | 1016.1 |
| 20260902170104 | 23 | 278 | 3.2 | 4.8 | 0.00 | 0.00 | 0.00 | 21 | 1016.0 |
| 20260902165608 | 22 | 297 | 1.6 | 4.8 | 0.00 | 0.00 | 0.00 | 23 | 1016.0 |
| 20260902165104 | 22 | 293 | 1.6 | 4.8 | 0.00 | 0.00 | 0.00 | 24 | 1016.0 |
| 20260902163603 | 22 | 285 | 3.2 | 8.0 | 0.00 | 0.00 | 0.00 | 24 | 1015.8 |
| 20260902162604 | 21 | 263 | 3.2 | 4.8 | 0.00 | 0.00 | 0.00 | 26 | 1015.8 |
| 20260902162104 | 21 | 280 | 1.6 | 4.8 | 0.00 | 0.00 | 0.00 | 26 | 1015.8 |
| 20260902161604 | 21 | 232 | 3.2 | 4.8 | 0.00 | 0.00 | 0.00 | 28 | 1015.6 |
| 20260902161104 | 21 | 196 | 1.6 | 4.8 | 0.00 | 0.00 | 0.00 | 26 | 1015.6 |
| 20260902160603 | 21 | 163 | 1.6 | 3.2 | 0.00 | 0.00 | 0.00 | 25 | 1015.7 |
| 20260902160104 | 21 | 163 | 0.0 | 3.2 | 0.00 | 0.00 | 0.00 | 25 | 1015.8 |
| 20260902155615 | 21 | 163 | 0.0 | 3.2 | 0.00 | 0.00 | 0.00 | 28 | 1015.9 |
| 20260902155104 | 21 | 163 | 0.0 | 3.2 | 0.00 | 0.00 | 0.00 | 31 | 1015.9 |
| 20260902154604 | 21 | 163 | 0.0 | 1.6 | 0.00 | 0.00 | 0.00 | 31 | 1015.9 |
| 20260902154104 | 20 | 163 | 0.0 | 1.6 | 0.00 | 0.00 | 0.00 | 30 | 1015.8 |
| 20260902153604 | 20 | 163 | 0.0 | 1.6 | 0.00 | 0.00 | 0.00 | 30 | 1015.9 |
| 20260902153104 | 20 | 163 | 0.0 | 1.6 | 0.00 | 0.00 | 0.00 | 31 | 1016.0 |
| 20260902152104 | 19 | 163 | 0.0 | 1.6 | 0.00 | 0.00 | 0.00 | 30 | 1016.1 |
| 20260902151604 | 18 | 163 | 0.0 | 0.0 | 0.00 | 0.00 | 0.00 | 32 | 1016.1 |
| 20260902151104 | 18 | 163 | 0.0 | 3.2 | 0.00 | 0.00 | 0.00 | 35 | 1016.1 |
| 20260902150604 | 18 | 163 | 0.0 | 3.2 | 0.00 | 0.00 | 0.00 | 36 | 1016.1 |
| 20260902145608 | 17 | 163 | 0.0 | 0.0 | 0.00 | 0.00 | 0.00 | 36 | 1015.9 |
| 20260902144104 | 15 | 163 | 0.0 | 0.0 | 0.00 | 0.00 | 0.00 | 34 | 1015.7 |
| 20260902143605 | 15 | 163 | 0.0 | 0.0 | 0.00 | 0.00 | 0.00 | 31 | 1015.7 |
| 20260902142104 | 15 | 163 | 0.0 | 3.2 | 0.00 | 0.00 | 0.00 | 32 | 1015.6 |
| 20260902141114 | 16 | 163 | 0.0 | 4.8 | 0.00 | 0.00 | 0.00 | 32 | 1015.3 |
| 20260902140611 | 16 | 128 | 0.0 | 3.2 | 0.00 | 0.00 | 0.00 | 28 | 1015.2 |
| 20260902140109 | 16 | 128 | 0.0 | 3.2 | 0.00 | 0.00 | 0.00 | 28 | 1015.1 |
| 20260902135604 | 16 | 128 | 0.0 | 3.2 | 0.00 | 0.00 | 0.00 | 27 | 1015.1 |
| 20260902134604 | 16 | 133 | 1.6 | 3.2 | 0.00 | 0.00 | 0.00 | 29 | 1015.0 |
| 20260902134104 | 16 | 133 | 1.6 | 3.2 | 0.00 | 0.00 | 0.00 | 29 | 1015.0 |
| 20260902133104 | 15 | 133 | 1.6 | 3.2 | 0.00 | 0.00 | 0.00 | 29 | 1015.0 |
| 20260902131104 | 15 | 133 | 1.6 | 3.2 | 0.00 | 0.00 | 0.00 | 30 | 1014.9 |
| 20260902130105 | 15 | 133 | 1.6 | 3.2 | 0.00 | 0.00 | 0.00 | 29 | 1015.0 |
| 20260902125607 | 15 | 133 | 1.6 | 3.2 | 0.00 | 0.00 | 0.00 | 29 | 1015.1 |
| 20260902125104 | 16 | 133 | 1.6 | 3.2 | 0.00 | 0.00 | 0.00 | 29 | 1015.1 |
| 20260902124604 | 15 | 133 | 1.6 | 3.2 | 0.00 | 0.00 | 0.00 | 29 | 1015.2 |
| 20260902123604 | 15 | 133 | 0.0 | 3.2 | 0.00 | 0.00 | 0.00 | 30 | 1015.2 |
| 20260902123103 | 15 | 133 | 1.6 | 3.2 | 0.00 | 0.00 | 0.00 | 30 | 1015.2 |
| 20260902122604 | 15 | 133 | 1.6 | 3.2 | 0.00 | 0.00 | 0.00 | 31 | 1015.3 |
| 20260902122104 | 16 | 133 | 1.6 | 3.2 | 0.00 | 0.00 | 0.00 | 30 | 1015.4 |
| 20260902121604 | 16 | 133 | 1.6 | 1.6 | 0.00 | 0.00 | 0.00 | 28 | 1015.5 |
| 20260902120604 | 16 | 133 | 0.0 | 1.6 | 0.00 | 0.00 | 0.00 | 27 | 1015.5 |
| 20260902115609 | 16 | 133 | 1.6 | 3.2 | 0.00 | 0.00 | 0.00 | 28 | 1015.6 |
| 20260902115104 | 16 | 133 | 1.6 | 3.2 | 0.00 | 0.00 | 0.00 | 27 | 1015.7 |
| 20260902114604 | 17 | 133 | 1.6 | 3.2 | 0.00 | 0.00 | 0.00 | 27 | 1015.6 |
| 20260902114104 | 17 | 133 | 1.6 | 3.2 | 0.00 | 0.00 | 0.00 | 26 | 1015.7 |
| 20260902113604 | 16 | 133 | 1.6 | 4.8 | 0.00 | 0.00 | 0.00 | 27 | 1015.7 |
| 20260902113104 | 16 | 133 | 1.6 | 4.8 | 0.00 | 0.00 | 0.00 | 26 | 1015.6 |
| 20260902112604 | 16 | 133 | 1.6 | 3.2 | 0.00 | 0.00 | 0.00 | 27 | 1015.6 |
| 20260902112104 | 16 | 133 | 1.6 | 3.2 | 0.00 | 0.00 | 0.00 | 27 | 1015.6 |
| 20260902111604 | 16 | 133 | 0.0 | 3.2 | 0.00 | 0.00 | 0.00 | 27 | 1015.7 |
| 20260902111104 | 16 | 133 | 1.6 | 3.2 | 0.00 | 0.00 | 0.00 | 27 | 1015.6 |
| 20260902110604 | 16 | 133 | 1.6 | 3.2 | 0.00 | 0.00 | 0.00 | 26 | 1015.6 |
| 20260902110104 | 16 | 133 | 1.6 | 3.2 | 0.00 | 0.00 | 0.00 | 26 | 1015.5 |
| 20260902105608 | 16 | 133 | 1.6 | 3.2 | 0.00 | 0.00 | 0.00 | 27 | 1015.6 |
| 20260902105104 | 16 | 133 | 1.6 | 3.2 | 0.00 | 0.00 | 0.00 | 27 | 1015.6 |
| 20260902104604 | 16 | 133 | 1.6 | 3.2 | 0.00 | 0.00 | 0.00 | 27 | 1015.6 |
| 20260902103604 | 16 | 133 | 1.6 | 3.2 | 0.00 | 0.00 | 0.00 | 28 | 1015.5 |
| 20260902103104 | 16 | 133 | 1.6 | 3.2 | 0.00 | 0.00 | 0.00 | 28 | 1015.6 |
| 20260902102604 | 16 | 133 | 1.6 | 1.6 | 0.00 | 0.00 | 0.00 | 27 | 1015.6 |
| 20260902101604 | 16 | 133 | 0.0 | 3.2 | 0.00 | 0.00 | 0.00 | 26 | 1015.6 |
| 20260902101104 | 16 | 133 | 0.0 | 3.2 | 0.00 | 0.00 | 0.00 | 26 | 1015.6 |
| 20260902100604 | 16 | 133 | 0.0 | 3.2 | 0.00 | 0.00 | 0.00 | 26 | 1015.7 |
| 20260902100105 | 16 | 133 | 1.6 | 1.6 | 0.00 | 0.00 | 0.00 | 26 | 1015.7 |
| 20260902095606 | 16 | 133 | 0.0 | 3.2 | 0.00 | 0.00 | 0.00 | 26 | 1015.7 |
| 20260902095104 | 16 | 133 | 1.6 | 3.2 | 0.00 | 0.00 | 0.00 | 28 | 1015.8 |
| 20260902094604 | 16 | 133 | 1.6 | 3.2 | 0.00 | 0.00 | 0.00 | 28 | 1015.8 |
| 20260902094104 | 16 | 133 | 0.0 | 3.2 | 0.00 | 0.00 | 0.00 | 28 | 1015.8 |
| 20260902093604 | 17 | 133 | 1.6 | 3.2 | 0.00 | 0.00 | 0.00 | 28 | 1015.8 |
| 20260902093103 | 17 | 133 | 1.6 | 3.2 | 0.00 | 0.00 | 0.00 | 27 | 1015.9 |
| 20260902092604 | 17 | 133 | 1.6 | 3.2 | 0.00 | 0.00 | 0.00 | 27 | 1016.0 |
| 20260902092104 | 17 | 133 | 1.6 | 1.6 | 0.00 | 0.00 | 0.00 | 27 | 1016.1 |
| 20260902091604 | 17 | 133 | 0.0 | 1.6 | 0.00 | 0.00 | 0.00 | 26 | 1016.0 |
| 20260902091104 | 17 | 133 | 0.0 | 1.6 | 0.00 | 0.00 | 0.00 | 26 | 1016.0 |
| 20260902085606 | 17 | 133 | 0.0 | 3.2 | 0.00 | 0.00 | 0.00 | 28 | 1016.1 |
| 20260902085105 | 17 | 133 | 0.0 | 1.6 | 0.00 | 0.00 | 0.00 | 28 | 1016.1 |
| 20260902084604 | 17 | 133 | 0.0 | 1.6 | 0.00 | 0.00 | 0.00 | 29 | 1016.1 |
| 20260902084104 | 17 | 133 | 0.0 | 3.2 | 0.00 | 0.00 | 0.00 | 29 | 1016.1 |
| 20260902083604 | 17 | 133 | 1.6 | 3.2 | 0.00 | 0.00 | 0.00 | 28 | 1016.1 |
| 20260902082605 | 17 | 133 | 0.0 | 1.6 | 0.00 | 0.00 | 0.00 | 30 | 1016.1 |
| 20260902082104 | 17 | 133 | 0.0 | 1.6 | 0.00 | 0.00 | 0.00 | 30 | 1016.0 |
| 20260902081604 | 18 | 133 | 0.0 | 1.6 | 0.00 | 0.00 | 0.00 | 30 | 1016.1 |
| 20260902081103 | 18 | 133 | 0.0 | 1.6 | 0.00 | 0.00 | 0.00 | 31 | 1016.1 |
| 20260902080603 | 17 | 133 | 0.0 | 1.6 | 0.00 | 0.00 | 0.00 | 33 | 1016.0 |
| 20260902080104 | 17 | 133 | 0.0 | 3.2 | 0.00 | 0.00 | 0.00 | 32 | 1016.0 |
| 20260902075604 | 17 | 133 | 0.0 | 3.2 | 0.00 | 0.00 | 0.00 | 32 | 1016.0 |
| 20260902075104 | 17 | 133 | 0.0 | 1.6 | 0.00 | 0.00 | 0.00 | 32 | 1016.0 |
| 20260902074103 | 18 | 133 | 0.0 | 1.6 | 0.00 | 0.00 | 0.00 | 28 | 1016.0 |
| 20260902073604 | 18 | 133 | 0.0 | 1.6 | 0.00 | 0.00 | 0.00 | 27 | 1016.0 |
| 20260902072605 | 18 | 133 | 0.0 | 1.6 | 0.00 | 0.00 | 0.00 | 26 | 1015.7 |
| 20260902071604 | 18 | 133 | 0.0 | 1.6 | 0.00 | 0.00 | 0.00 | 26 | 1015.6 |
| 20260902071104 | 18 | 133 | 0.0 | 1.6 | 0.00 | 0.00 | 0.00 | 27 | 1015.5 |
| 20260902070607 | 18 | 133 | 0.0 | 1.6 | 0.00 | 0.00 | 0.00 | 27 | 1015.5 |
| 20260902065608 | 18 | 133 | 0.0 | 1.6 | 0.00 | 0.00 | 0.00 | 28 | 1015.4 |
| 20260902065104 | 18 | 133 | 0.0 | 0.0 | 0.00 | 0.00 | 0.00 | 28 | 1015.4 |
| 20260902064604 | 18 | 133 | 0.0 | 1.6 | 0.00 | 0.00 | 0.00 | 27 | 1015.4 |
| 20260902064104 | 18 | 133 | 0.0 | 1.6 | 0.00 | 0.00 | 0.00 | 28 | 1015.4 |
| 20260902063604 | 19 | 133 | 1.6 | 1.6 | 0.00 | 0.00 | 0.00 | 28 | 1015.5 |
| 20260902063104 | 19 | 133 | 0.0 | 1.6 | 0.00 | 0.00 | 0.00 | 26 | 1015.5 |
| 20260902062604 | 19 | 133 | 0.0 | 1.6 | 0.00 | 0.00 | 0.00 | 27 | 1015.5 |
| 20260902062104 | 19 | 133 | 0.0 | 1.6 | 0.00 | 0.00 | 0.00 | 26 | 1015.5 |
| 20260902061104 | 20 | 133 | 0.0 | 1.6 | 0.00 | 0.00 | 0.00 | 25 | 1015.4 |
| 20260902060603 | 20 | 133 | 0.0 | 0.0 | 0.00 | 0.00 | 0.00 | 25 | 1015.3 |
| 20260902055604 | 20 | 133 | 0.0 | 1.6 | 0.00 | 0.00 | 0.00 | 25 | 1015.2 |
| 20260902055104 | 20 | 133 | 0.0 | 1.6 | 0.00 | 0.00 | 0.00 | 25 | 1015.1 |
| 20260902054604 | 20 | 133 | 0.0 | 1.6 | 0.00 | 0.00 | 0.00 | 25 | 1015.2 |
| 20260902054104 | 20 | 133 | 0.0 | 1.6 | 0.00 | 0.00 | 0.00 | 25 | 1015.2 |
| 20260902053604 | 20 | 133 | 0.0 | 3.2 | 0.00 | 0.00 | 0.00 | 25 | 1015.2 |
| 20260902053104 | 20 | 133 | 1.6 | 3.2 | 0.00 | 0.00 | 0.00 | 24 | 1015.2 |
| 20260902052604 | 20 | 133 | 0.0 | 1.6 | 0.00 | 0.00 | 0.00 | 24 | 1015.3 |
| 20260902052104 | 20 | 133 | 0.0 | 1.6 | 0.00 | 0.00 | 0.00 | 23 | 1015.4 |
| 20260902051604 | 21 | 133 | 0.0 | 0.0 | 0.00 | 0.00 | 0.00 | 23 | 1015.4 |
| 20260902051104 | 21 | 133 | 0.0 | 0.0 | 0.00 | 0.00 | 0.00 | 23 | 1015.4 |
| 20260902050607 | 21 | 133 | 0.0 | 0.0 | 0.00 | 0.00 | 0.00 | 24 | 1015.3 |
| 20260902050104 | 21 | 133 | 0.0 | 0.0 | 0.00 | 0.00 | 0.00 | 24 | 1015.4 |
| 20260902045608 | 21 | 133 | 0.0 | 1.6 | 0.00 | 0.00 | 0.00 | 23 | 1015.3 |
| 20260902045104 | 21 | 133 | 0.0 | 1.6 | 0.00 | 0.00 | 0.00 | 22 | 1015.4 |
| 20260902044604 | 21 | 133 | 0.0 | 3.2 | 0.00 | 0.00 | 0.00 | 22 | 1015.3 |
| 20260902044104 | 22 | 133 | 0.0 | 3.2 | 0.00 | 0.00 | 0.00 | 22 | 1015.2 |
| 20260902043604 | 22 | 137 | 0.0 | 1.6 | 0.00 | 0.00 | 0.00 | 21 | 1015.1 |
| 20260902043104 | 22 | 137 | 0.0 | 3.2 | 0.00 | 0.00 | 0.00 | 20 | 1015.1 |
| 20260902042104 | 22 | 132 | 0.0 | 1.6 | 0.00 | 0.00 | 0.00 | 21 | 1015.0 |
| 20260902041604 | 22 | 128 | 0.0 | 3.2 | 0.00 | 0.00 | 0.00 | 20 | 1014.9 |
| 20260902040604 | 22 | 128 | 0.0 | 3.2 | 0.00 | 0.00 | 0.00 | 20 | 1014.7 |
| 20260902040104 | 22 | 180 | 0.0 | 3.2 | 0.00 | 0.00 | 0.00 | 20 | 1014.6 |
| 20260902035610 | 22 | 150 | 0.0 | 3.2 | 0.00 | 0.00 | 0.00 | 20 | 1014.5 |
| 20260902035103 | 22 | 136 | 0.0 | 3.2 | 0.00 | 0.00 | 0.00 | 21 | 1014.5 |
| 20260902034604 | 22 | 139 | 0.0 | 3.2 | 0.00 | 0.00 | 0.00 | 22 | 1014.5 |
| 20260902033604 | 22 | 169 | 0.0 | 3.2 | 0.00 | 0.00 | 0.00 | 23 | 1014.4 |
| 20260902033104 | 22 | 169 | 0.0 | 3.2 | 0.00 | 0.00 | 0.00 | 23 | 1014.3 |
| 20260902032604 | 23 | 170 | 0.0 | 3.2 | 0.00 | 0.00 | 0.00 | 23 | 1014.1 |
| 20260902032104 | 23 | 169 | 0.0 | 3.2 | 0.00 | 0.00 | 0.00 | 23 | 1014.1 |
| 20260902031604 | 23 | 173 | 0.0 | 4.8 | 0.00 | 0.00 | 0.00 | 24 | 1013.9 |
| 20260902031106 | 23 | 165 | 0.0 | 4.8 | 0.00 | 0.00 | 0.00 | 24 | 1013.8 |
| 20260902030603 | 23 | 182 | 0.0 | 3.2 | 0.00 | 0.00 | 0.00 | 25 | 1013.7 |
| 20260902030104 | 23 | 184 | 1.6 | 3.2 | 0.00 | 0.00 | 0.00 | 25 | 1013.7 |
| 20260902025608 | 23 | 173 | 1.6 | 4.8 | 0.00 | 0.00 | 0.00 | 25 | 1013.7 |
| 20260902025104 | 24 | 194 | 1.6 | 4.8 | 0.00 | 0.00 | 0.00 | 26 | 1013.7 |
| 20260902024603 | 24 | 196 | 1.6 | 3.2 | 0.00 | 0.00 | 0.00 | 26 | 1013.7 |
| 20260902024104 | 24 | 180 | 1.6 | 4.8 | 0.00 | 0.00 | 0.00 | 25 | 1013.7 |
| 20260902023604 | 25 | 198 | 1.6 | 4.8 | 0.00 | 0.00 | 0.00 | 25 | 1013.6 |
| 20260902023104 | 25 | 172 | 1.6 | 4.8 | 0.00 | 0.00 | 0.00 | 25 | 1013.6 |
| 20260902022604 | 25 | 182 | 1.6 | 3.2 | 0.00 | 0.00 | 0.00 | 24 | 1013.5 |
| 20260902022104 | 25 | 196 | 0.0 | 3.2 | 0.00 | 0.00 | 0.00 | 24 | 1013.5 |
| 20260902020604 | 26 | 232 | 0.0 | 3.2 | 0.00 | 0.00 | 0.00 | 23 | 1013.3 |
| 20260902020105 | 27 | 231 | 1.6 | 4.8 | 0.00 | 0.00 | 0.00 | 22 | 1013.2 |
| 20260902015605 | 27 | 225 | 1.6 | 4.8 | 0.00 | 0.00 | 0.00 | 21 | 1013.2 |
| 20260902015104 | 27 | 231 | 1.6 | 4.8 | 0.00 | 0.00 | 0.00 | 22 | 1013.3 |
| 20260902014604 | 27 | 220 | 1.6 | 4.8 | 0.00 | 0.00 | 0.00 | 21 | 1013.2 |
| 20260902013604 | 28 | 186 | 1.6 | 4.8 | 0.00 | 0.00 | 0.00 | 21 | 1013.2 |
| 20260902012604 | 28 | 231 | 3.2 | 4.8 | 0.00 | 0.00 | 0.00 | 21 | 1013.1 |
| 20260902012104 | 28 | 259 | 3.2 | 4.8 | 0.00 | 0.00 | 0.00 | 21 | 1013.1 |
| 20260902011604 | 28 | 261 | 3.2 | 11.3 | 0.00 | 0.00 | 0.00 | 21 | 1013.1 |
| 20260902011104 | 28 | 228 | 3.2 | 11.3 | 0.00 | 0.00 | 0.00 | 21 | 1013.1 |
| 20260902010607 | 28 | 241 | 3.2 | 11.3 | 0.00 | 0.00 | 0.00 | 21 | 1013.1 |
| 20260902010105 | 29 | 265 | 4.8 | 11.3 | 0.00 | 0.00 | 0.00 | 21 | 1013.1 |